Location: Pinhead Observatory
(34.4473°N, 118.1985°W)
Time: 14:59:32
(UTC-08:00)

Daily predictions for brighter satellites

Satellite Brightness Start Highest point End
(mag) Time Altitude Azimuth Time Altitude Azimuth Time Altitude Azimuth
Cosmos 1378 Rocket 3.7 18:06:32 10° N 18:10:51 51° E 18:15:10 10° SSE
ERS-2 3.5 18:09:54 10° ESE 18:12:36 20° ENE 18:15:18 10° NNE
Cosmos 1782 Rocket 3.7 18:16:32 10° S 18:20:50 51° E 18:25:08 10° NNE
Gbstr 26 Del rocket 3.3 18:17:59 10° WSW 18:21:40 54° NW 18:25:24 10° NE
Sakura Rocket 4.2 18:17:45 10° WSW 18:22:14 46° S 18:28:19 10° ESE
USA 215 3.9 18:16:42 10° ENE 18:22:33 35° SE 18:28:22 10° S
FREGAT/IRIS 3.7 18:21:26 10° SE 18:23:52 24° ENE 18:26:20 10° NNE
FengYun 1-2 T 4.5 18:20:29 10° SE 18:25:40 45° ENE 18:30:53 10° N
Okean 3 3.8 18:21:45 10° NNW 18:25:55 70° W 18:30:03 10° S
Cosmos 1513 Rocket 4.5 18:21:13 10° N 18:27:30 69° E 18:33:38 10° SSE
Tiangong 2 3.6 18:25:10 10° W 18:27:37 21° SW 18:30:06 10° SSE
H-2A R/B 2.9 18:24:58 10° SSE 18:28:45 53° ENE 18:32:33 10° N
Envisat 4.2 18:26:20 10° ESE 18:30:07 22° ENE 18:33:55 10° NNE
SL-16 R/B 2.6 18:26:58 10° NNW 18:32:36 68° WSW 18:38:11 10° S
Cosmos 494 Rocket 4.1 18:29:50 10° S 18:34:52 52° ESE 18:39:54 10° NNE
COSMO-SKYMED 1 4.5 18:31:05 10° N 18:35:00 33° WNW 18:38:53 10° SW
OAO 2 Rocket 3.2 18:34:49 10° W 18:39:50 84° N 18:43:27 18° E
Sich 1 Rocket 4.1 18:36:27 10° SSW 18:40:55 65° W 18:45:21 10° N
FALCON 9 R/B 4.0 18:36:26 10° W 18:43:08 86° S 19:04:53 17° ESE
CENTAUR R/B 4.2 18:39:44 10° WSW 18:45:01 31° NW 18:50:56 10° NNE
Cosmos 921 Rocket 3.1 18:41:36 10° NNW 18:46:07 85° WSW 18:50:32 10° SSE
CZ-4C R/B 3.9 18:40:59 10° N 18:46:53 26° NE 18:50:37 18° E
Meteor 1-4 Rocket 2.5 18:43:55 10° S 18:47:21 57° E 18:50:52 10° NNE
SJ-6B 3.3 18:44:25 10° SE 18:47:52 35° ENE 18:51:25 10° N
Cosmos 1110 Rocket 4.3 18:44:16 10° N 18:49:19 44° ENE 18:54:23 10° SE
Okean 2 Rocket 3.0 18:45:58 10° S 18:50:19 68° E 18:54:42 10° NNE
Cosmos 1603 3.8 18:46:13 10° N 18:51:44 53° ENE 18:57:11 10° SE
Tsikada Rocket 4.0 18:47:11 10° S 18:53:36 84° E 19:00:02 10° N
CZ-2D R/B 3.8 18:52:18 13° SE 18:55:25 37° ENE 18:59:03 10° N
COSMOS 2455 2.8 18:50:48 10° SSW 18:56:49 82° ESE 19:02:52 10° NNE
Cosmos 2263 Rocket 2.2 18:51:50 10° S 18:57:13 55° ESE 19:02:40 10° NNE
Thor Agena Rocket 3.5 18:52:44 10° NNE 18:57:43 57° ESE 19:02:39 10° S
Cosmos 2151 Rocket 3.9 18:55:59 10° SSE 19:00:13 43° E 19:04:27 10° NNE
Cosmos 1602 4.4 18:57:18 10° SSW 19:01:08 56° W 19:04:57 10° N
Iridium 4 Rocket 4.0 18:56:54 10° NNW 19:01:21 52° W 19:05:29 10° SSW
Meteor 1-13 Rocket 4.0 19:06:22 10° N 19:11:53 75° E 19:17:24 10° SSE
ATLAS CENTAUR R/B 2.6 19:12:26 10° N 19:15:26 27° NE 19:15:26 27° NE
Cosmos 1331 Rocket 3.9 19:12:55 10° NNW 19:18:14 75° ENE 19:22:32 16° SSE
Spot 2 Rocket 4.5 19:20:40 28° NE 19:20:40 28° NE 19:23:58 10° N
BREEZE-M DEB (TANK) 3.1 19:20:12 10° NNW 19:21:57 32° N 19:21:57 32° N
Geosat 4.1 19:24:05 45° E 19:24:52 50° ESE 19:29:43 10° S
CZ-3C R/B 3.5 19:23:10 10° SSW 19:27:12 27° SSE 19:29:40 24° SE
GPS 2-05 Rocket1 3.4 19:25:45 10° W 19:28:14 49° WNW 19:28:14 49° WNW
Cosmos 2279 Rocket 4.4 19:24:20 10° N 19:29:38 39° ENE 19:29:38 39° ENE
Cosmos 397 4.4 19:26:24 10° SSW 19:30:27 87° ESE 19:31:46 46° NNE
ARGOS Delta rocket 4.2 19:27:10 10° N 19:31:48 60° WNW 19:36:12 10° SSW
Meteor 1-5 Rocket 4.3 19:27:54 10° S 19:33:47 88° W 19:39:47 10° N
Meteor 2-4 Rocket 3.7 19:30:31 10° N 19:36:15 80° W 19:41:46 10° S
Cosmos 1536 3.3 19:32:26 10° SSW 19:36:25 61° W 19:40:27 10° N
BREEZE-M R/B 4.4 19:35:16 10° NW 19:38:42 76° NE 19:41:53 38° ESE
Cosmos 2251 Rocket 3.9 19:34:13 10° SSW 19:39:23 63° WNW 19:44:35 10° N
Lacrosse 5 rocket 1.7 19:35:46 10° SW 19:38:39 51° WSW 19:38:39 51° WSW
Cosmos 1184 Rocket 4.3 19:36:54 10° NNW 19:39:04 34° NW 19:39:04 34° NW
SeaSat 1 2.5 19:41:29 57° NE 19:41:29 57° NE 19:45:53 10° NNW
CZ-3 Stage 3 3.6 19:43:03 10° WSW 19:44:45 20° SW 19:44:45 20° SW
Cosmos 1302 Rocket 3.9 19:45:24 10° NNW 19:50:09 73° NNE 19:50:09 73° NNE
Resurs 01 Rocket 2.7 19:53:51 36° NNW 19:53:51 36° NNW 19:56:29 10° NNW
Cosmos 1634 Rocket 4.1 19:46:58 10° N 19:53:08 74° W 19:59:16 10° S
Cosmos 1943 3.2 19:49:20 10° NNW 19:55:00 79° WSW 19:55:58 62° S
USA 215 3.7 20:02:13 28° NNE 20:05:38 56° NW 20:11:59 10° WSW
Envisat 4.3 20:04:12 10° SSW 20:08:51 37° W 20:13:33 10° NNW
CZ-4C R/B 3.0 20:28:36 10° NW 20:35:53 73° WSW 20:35:53 73° WSW
